Wetbulb
57.84 57.93 57.81 57.46 57.54 57.57 57.69 57.61 57.70 57.79 57.60 58.07 57.82 57.53 57.78 57.77 57.50 56.15 53.57 58.66 59.95 63.00 59.83 53.77 52.11 51.18 50.44 47.83 47.95 45.83 36.49 33.25 36.42 35.76 37.37 42.80 41.78 45.39 46.22 42.88 42.96 42.89 41.81 43.21 45.29
57.65 57.60 57.40 57.31 57.27 57.36 57.33 57.21 57.44 57.71 57.95 57.17 57.25 57.53 57.37 56.72 53.85 51.54 58.96 62.87 62.94 62.51 54.59 50.91 48.64 49.58 45.04 45.87 46.01 41.50 35.17 35.51 39.65 39.61 39.30 41.89 41.44 41.91 42.33 37.37 39.14 39.80 40.64 42.02 42.56
57.29 57.10 56.93 57.04 57.09 56.96 56.93 56.91 57.20 57.71 57.27 56.29 57.28 57.09 56.07 54.14 47.19 48.55 59.01 61.69 62.05 59.40 55.11 53.58 50.65 48.60 44.01 44.88 43.74 41.55 37.06 39.54 41.20 43.09 42.04 40.99 35.56 36.46 35.43 33.64 37.35 34.73 36.63 38.70 39.62
56.99 56.76 56.62 56.62 56.60 56.47 56.59 56.61 57.14 57.44 57.34 56.44 56.02 55.76 55.61 49.99 36.96 49.18 57.00 58.12 60.28 54.95 52.04 49.50 47.11 43.19 40.88 39.78 42.35 39.64 41.62 42.06 40.95 40.79 38.99 39.20 40.66 31.49 31.83 32.98 36.48 37.55 37.52 37.06 36.34
56.69 56.37 56.25 56.07 55.98 56.13 56.32 56.18 56.67 56.81 57.40 57.74 56.98 55.56 50.13 43.36 43.92 52.07 54.64 53.17 53.86 51.80 48.42 47.07 43.93 42.97 39.06 40.53 41.53 39.53 39.60 39.38 35.84 36.03 35.53 36.21 31.58 30.81 29.59 34.15 35.85 36.84 35.80 34.45 34.58
56.17 55.91 55.71 55.49 55.65 55.94 55.86 55.89 55.96 56.14 57.43 58.18 58.34 55.96 45.61 34.36 47.25 44.92 46.26 52.29 51.84 50.08 47.77 47.60 45.50 45.62 41.49 40.48 38.95 40.14 35.63 31.22 32.57 31.78 33.97 31.33 29.54 31.73 29.87 33.83 33.25 33.55 33.44 32.90 32.36
55.82 55.50 55.39 55.13 55.59 55.56 55.84 56.21 55.38 55.42 56.91 57.95 58.10 46.92 40.49 37.92 44.09 42.28 43.07 47.28 49.31 50.31 47.22 48.78 48.41 43.89 43.34 39.21 41.90 40.87 36.22 30.96 29.04 29.77 31.60 33.31 26.33 22.52 27.68 29.71 28.89 31.19 31.37 31.49 30.82
55.17 55.07 55.01 54.86 55.11 54.78 55.26 55.58 55.30 55.90 56.92 57.79 56.08 46.28 40.35 47.45 45.95 40.78 41.28 45.02 47.76 50.80 49.32 47.74 46.26 39.13 33.46 35.94 34.97 30.66 32.68 28.37 26.34 28.15 30.31 32.06 21.24 23.71 27.17 26.29 25.05 26.54 28.23 29.96 29.27
54.67 54.76 54.78 54.72 54.61 54.41 54.43 55.84 55.50 56.12 56.79 55.35 43.85 40.18 35.78 44.66 38.58 39.73 38.99 38.99 43.90 43.78 41.52 41.49 37.40 29.88 29.43 26.22 28.20 24.01 21.73 22.94 24.73 27.34 26.63 27.91 21.32 23.00 26.11 24.33 22.84 24.06 25.20 27.54 27.83
54.05 54.16 54.40 54.44 54.30 53.80 53.22 54.30 52.60 50.93 47.98 45.84 43.88 37.59 38.39 34.18 36.75 37.57 38.19 39.08 38.02 37.16 36.02 32.79 28.23 23.35 23.22 22.35 18.42 16.95 18.05 20.10 20.66 23.38 24.23 23.03 18.97 21.93 23.91 23.15 21.73 22.50 23.61 24.47 26.26
53.62 53.80 54.12 54.11 54.42 51.78 46.50 40.80 39.63 36.77 38.74 34.32 34.01 35.73 37.74 38.06 38.71 34.82 36.08 36.32 35.27 31.47 25.01 27.27 21.31 17.03 18.34 20.68 22.27 20.68 19.00 16.45 20.07 23.86 21.46 19.56 18.70 19.49 21.59 21.58 20.18 20.88 21.56 22.65 24.70
53.23 53.52 53.80 51.83 52.97 49.77 42.93 38.51 37.15 38.95 33.09 37.72 37.02 35.67 36.12 36.08 29.96 31.93 35.79 30.14 27.45 23.05 25.98 22.27 17.14 22.03 23.69 23.08 21.68 19.55 16.78 15.26 19.64 23.35 21.76 17.92 15.99 20.15 20.26 19.76 20.63 19.88 20.40 21.29 23.21
52.91 53.29 53.45 50.27 48.64 40.81 38.59 37.08 40.89 42.65 35.00 35.61 36.38 34.06 33.31 33.55 27.81 27.58 30.94 29.63 24.73 21.27 20.65 17.86 19.64 24.55 23.00 19.64 19.33 18.06 15.18 14.66 14.86 20.00 20.97 18.05 14.42 15.10 19.22 20.31 20.46 20.69 21.15 21.58 21.74
52.71 53.05 52.76 49.54 41.86 36.35 34.11 38.13 41.95 43.21 28.71 29.81 31.30 32.20 33.15 32.83 27.03 31.82 31.83 28.81 24.19 20.05 20.42 18.85 23.15 22.06 20.10 18.88 18.97 14.72 19.89 18.43 16.91 14.75 10.78 18.76 6.95 11.82 15.09 15.46 16.73 16.87 18.16 19.07 20.64
52.54 52.71 50.35 45.76 36.20 34.85 36.55 38.33 43.54 38.91 19.39 30.29 29.71 36.48 32.59 26.97 26.71 26.83 31.25 28.27 21.07 20.46 21.39 16.36 18.54 18.79 17.22 19.10 20.90 16.93 20.91 18.07 17.37 14.12 12.57 13.71 9.52 8.27 13.54 10.68 11.82 12.58 16.38 18.37 20.12
52.15 51.92 47.18 39.17 36.10 35.30 37.11 42.90 40.53 29.62 16.42 24.75 28.66 25.94 24.83 25.50 25.59 27.02 25.15 26.87 25.48 21.90 21.19 19.40 22.47 21.22 19.89 22.15 21.98 21.80 18.11 17.36 16.85 14.26 5.32 10.79 10.40 3.70 5.59 7.52 10.21 13.64 16.30 17.54 18.59
50.92 50.02 42.31 38.47 34.10 35.77 41.83 37.94 27.97 22.53 27.08 24.08 22.80 24.55 22.40 20.67 21.92 22.56 20.04 16.22 14.51 12.68 10.53 16.87 18.32 21.03 22.42 17.70 20.82 18.26 13.40 4.79 2.33 0.88 3.75 12.86 9.00 4.01 7.06 9.92 10.74 11.78 14.21 15.87 17.99
49.12 46.82 41.26 37.23 35.99 38.53 36.95 30.21 23.53 23.52 21.00 25.56 24.18 23.45 18.40 19.52 18.93 19.07 17.65 13.28 17.19 14.64 10.57 8.18 8.07 16.71 21.42 18.31 14.40 15.10 13.63 3.68 -8.22 -1.64 1.45 10.32 -0.38 5.57 7.72 8.64 12.01 13.71 15.44 17.17 16.76
47.43 38.02 34.03 34.91 37.29 36.59 31.71 22.41 19.13 21.07 23.55 22.02 22.34 18.03 16.54 19.43 17.31 15.29 12.75 13.23 15.30 15.08 9.88 7.03 9.32 18.55 21.95 21.16 18.78 14.01 9.73 15.61 5.35 4.00 3.51 6.48 5.82 8.16 15.28 11.35 11.22 10.39 14.26 13.87 16.15
36.99 33.17 32.92 34.74 34.72 32.92 27.25 22.58 21.33 24.16 24.05 22.82 17.71 16.98 12.58 13.53 13.40 12.66 12.18 15.70 17.38 16.92 15.50 12.35 5.12 16.97 19.65 20.43 19.43 16.00 17.24 6.80 8.71 -3.61 -3.30 -1.32 -1.69 1.70 0.14 4.01 7.27 6.69 8.21 11.42 15.61
34.14 32.55 34.81 33.69 33.59 28.76 20.83 20.20 22.53 24.45 24.11 20.95 17.05 14.90 12.54 11.39 12.03 10.78 11.34 16.97 17.37 17.99 17.02 15.01 10.49 10.68 15.96 12.90 10.97 12.87 9.16 10.13 9.41 7.59 -1.08 -3.15 -3.30 -1.00 0.58 2.16 4.27 4.89 11.20 13.15 14.50
31.46 30.19 34.36 33.40 26.63 22.66 19.86 23.21 27.26 23.14 23.79 21.96 19.70 17.97 13.27 13.34 11.85 11.39 12.75 14.60 18.50 18.21 13.90 15.35 11.20 5.39 8.81 13.46 14.59 12.42 8.63 8.13 3.71 -0.28 5.06 1.52 -0.24 3.01 1.48 4.47 8.79 11.36 14.04 15.43 16.24
28.24 26.03 32.89 31.75 23.20 19.35 21.54 22.56 23.41 22.46 20.84 20.84 18.84 20.08 16.61 14.17 10.50 13.55 14.66 22.00 21.08 19.58 15.12 15.70 6.89 0.18 5.17 9.82 9.98 7.75 11.24 11.18 9.86 8.16 2.62 -0.68 -1.19 6.51 6.44 10.76 12.31 12.17 13.59 14.46 15.66
28.48 27.39 27.01 25.21 22.67 21.21 19.97 19.99 19.56 23.95 21.15 21.88 19.69 19.66 15.98 13.11 14.76 12.55 13.51 20.50 21.85 20.49 25.91 20.77 10.62 5.07 -1.15 4.86 9.69 7.91 9.42 10.77 8.85 3.65 1.53 1.22 1.86 9.30 7.76 8.49 10.89 12.00 13.30 13.76 15.12
25.87 22.38 22.21 20.19 20.57 19.14 19.43 20.31 18.99 18.13 20.80 20.59 18.63 18.25 15.39 10.08 11.44 10.86 14.35 15.37 19.21 21.84 17.32 14.70 7.00 6.45 9.61 9.42 9.95 9.56 10.08 9.51 7.21 6.68 2.81 2.73 4.85 8.26 6.99 8.32 10.64 12.49 13.21 13.81 14.23
26.26 23.59 21.63 19.01 19.92 17.94 20.11 16.92 19.13 19.02 19.17 18.06 16.92 17.26 14.49 11.72 12.48 9.94 13.08 11.82 11.50 14.76 14.07 14.07 7.64 9.16 5.90 10.83 10.85 7.47 10.45 9.99 10.51 9.71 7.98 7.10 5.45 8.81 10.76 12.26 11.07 11.25 12.43 12.63 13.52
25.70 24.69 25.49 21.00 17.94 17.26 16.27 18.42 20.66 20.36 20.83 21.38 18.17 15.15 14.73 17.27 16.68 16.33 16.83 15.81 13.78 11.59 11.92 10.76 7.51 4.53 1.43 8.58 5.82 0.85 4.46 7.26 8.02 9.82 7.38 2.11 5.19 9.49 8.66 9.37 10.25 11.47 12.28 12.51 14.07
MSLP
1020.36 1020.03 1019.73 1019.40 1019.08 1018.79 1018.49 1018.24 1018.03 1017.76 1017.48 1017.27 1017.15 1017.05 1016.95 1016.83 1016.63 1016.45 1016.36 1016.78 1016.35 1015.99 1015.72 1015.67 1015.72 1015.84 1015.98 1016.69 1017.09 1017.53 1018.42 1018.97 1018.56 1018.54 1018.57 1018.48 1018.42 1018.03 1018.01 1018.69 1019.27 1020.81 1021.65 1021.69 1019.96
1020.44 1020.11 1019.79 1019.44 1019.10 1018.78 1018.47 1018.24 1017.98 1017.72 1017.46 1017.30 1017.13 1017.07 1017.00 1016.92 1016.67 1016.67 1017.32 1016.69 1016.26 1016.02 1016.08 1016.06 1016.08 1016.03 1016.65 1017.08 1017.45 1017.87 1018.76 1018.73 1018.67 1018.72 1019.14 1019.24 1019.07 1019.17 1019.36 1020.59 1021.68 1022.16 1022.78 1022.20 1021.29
1020.44 1020.11 1019.73 1019.37 1019.04 1018.77 1018.48 1018.18 1017.90 1017.66 1017.50 1017.36 1017.26 1017.12 1017.14 1017.10 1017.13 1017.85 1017.23 1016.81 1016.37 1016.21 1016.28 1016.35 1016.39 1016.52 1017.11 1017.46 1017.99 1018.35 1018.71 1018.96 1019.21 1019.34 1019.60 1019.82 1020.81 1021.66 1021.59 1023.09 1024.76 1024.88 1024.51 1024.02 1023.04
1020.38 1020.07 1019.74 1019.37 1019.01 1018.60 1018.27 1018.07 1017.84 1017.70 1017.57 1017.41 1017.27 1017.20 1017.03 1017.07 1018.73 1018.36 1017.72 1017.15 1016.65 1016.39 1016.47 1016.68 1016.82 1017.33 1018.03 1018.47 1018.69 1018.99 1019.44 1019.88 1020.40 1020.55 1020.50 1020.75 1021.23 1024.34 1025.03 1026.48 1026.61 1026.29 1026.23 1025.54 1024.57
1020.42 1020.06 1019.65 1019.21 1018.79 1018.43 1018.13 1017.95 1017.76 1017.55 1017.48 1017.44 1017.39 1017.25 1017.23 1018.25 1019.40 1018.69 1017.99 1017.38 1016.95 1016.91 1017.28 1017.42 1017.83 1018.28 1018.88 1019.20 1019.38 1019.71 1020.31 1020.99 1021.64 1021.65 1021.95 1022.31 1023.83 1024.84 1026.74 1027.59 1027.52 1027.07 1026.64 1026.35 1026.33
1020.42 1020.05 1019.63 1019.16 1018.68 1018.25 1017.91 1017.66 1017.51 1017.45 1017.39 1017.35 1017.29 1017.25 1017.54 1019.43 1019.61 1018.99 1018.33 1017.63 1017.61 1017.54 1017.73 1017.79 1018.35 1018.62 1019.28 1019.83 1020.26 1020.73 1021.39 1022.16 1022.44 1022.79 1023.36 1024.27 1025.92 1025.80 1028.31 1028.69 1028.20 1027.79 1027.67 1027.69 1027.41
1020.49 1020.07 1019.61 1019.05 1018.58 1018.17 1017.76 1017.40 1017.40 1017.47 1017.39 1017.28 1017.08 1017.16 1018.25 1019.92 1019.83 1019.26 1018.43 1018.06 1017.95 1017.81 1018.04 1018.25 1018.51 1019.05 1020.00 1020.63 1020.98 1021.13 1021.99 1022.87 1023.71 1023.91 1023.94 1024.61 1026.79 1029.64 1030.29 1029.78 1029.19 1028.71 1028.62 1028.68 1028.65
1020.62 1020.10 1019.58 1019.08 1018.58 1018.22 1017.87 1017.63 1017.58 1017.51 1017.41 1017.33 1017.17 1017.49 1019.46 1019.89 1019.81 1018.95 1019.10 1018.50 1018.30 1018.16 1018.29 1018.64 1018.88 1020.02 1021.35 1021.58 1021.84 1022.53 1022.99 1024.18 1025.31 1024.99 1024.63 1024.88 1028.63 1030.60 1030.84 1030.51 1030.32 1030.06 1029.64 1029.27 1029.34
1020.75 1020.28 1019.83 1019.32 1018.62 1018.31 1018.06 1017.89 1017.83 1017.76 1017.60 1017.32 1017.61 1018.14 1020.33 1020.16 1020.37 1020.93 1020.71 1020.33 1019.39 1019.03 1019.39 1019.47 1020.43 1023.16 1023.65 1023.96 1024.13 1024.90 1025.23 1025.80 1026.08 1026.47 1026.51 1026.66 1029.17 1031.09 1031.38 1031.21 1031.14 1031.04 1030.74 1030.09 1029.84
1020.80 1020.30 1019.80 1019.35 1018.92 1018.24 1018.09 1018.07 1017.99 1017.89 1017.89 1017.73 1018.58 1019.62 1021.41 1022.31 1022.19 1022.01 1021.38 1020.91 1020.60 1020.42 1020.79 1022.06 1023.98 1025.89 1026.77 1026.20 1027.10 1027.47 1027.43 1027.37 1027.58 1027.84 1027.97 1028.58 1030.51 1031.38 1031.61 1031.58 1031.79 1031.60 1031.33 1031.04 1030.48
1020.92 1020.49 1019.94 1019.43 1019.08 1018.69 1018.38 1018.36 1019.09 1019.59 1020.31 1021.57 1022.04 1022.30 1022.76 1022.86 1022.59 1022.77 1022.45 1021.97 1021.97 1022.67 1024.35 1025.20 1026.62 1028.35 1028.84 1028.62 1028.50 1028.56 1028.54 1028.61 1028.52 1028.62 1028.95 1029.79 1030.99 1031.88 1032.22 1032.15 1032.17 1031.89 1031.50 1031.16 1030.90
1020.82 1020.37 1019.91 1019.55 1019.21 1018.77 1019.08 1020.49 1021.75 1022.05 1022.54 1022.59 1022.83 1023.26 1023.63 1023.71 1023.72 1024.15 1023.66 1023.75 1024.96 1025.68 1026.04 1027.26 1028.84 1029.34 1029.26 1029.17 1029.03 1029.05 1029.17 1029.38 1029.01 1029.00 1029.50 1030.46 1031.58 1032.27 1032.78 1033.17 1033.35 1033.34 1032.95 1032.39 1031.47
1020.72 1020.22 1019.77 1019.40 1019.20 1019.64 1020.72 1021.82 1022.03 1021.81 1022.47 1023.51 1023.60 1024.11 1024.65 1024.62 1026.06 1026.15 1025.71 1025.76 1026.57 1027.31 1027.61 1028.46 1030.12 1029.74 1029.60 1029.84 1029.66 1029.78 1030.13 1030.23 1030.37 1029.94 1029.60 1030.78 1032.03 1032.70 1033.22 1033.65 1033.92 1034.00 1033.85 1033.38 1032.75
1020.72 1020.23 1019.72 1019.06 1019.69 1020.93 1021.72 1021.91 1021.63 1021.60 1022.69 1024.47 1024.34 1025.02 1025.40 1025.49 1026.71 1027.06 1026.76 1027.04 1027.58 1028.59 1029.03 1029.98 1030.35 1030.00 1029.73 1029.73 1030.11 1030.09 1030.08 1030.32 1030.39 1030.55 1030.67 1031.06 1032.11 1033.23 1033.81 1034.22 1034.47 1034.40 1034.05 1033.64 1032.92
1020.89 1020.28 1019.96 1019.21 1020.54 1021.53 1022.02 1021.96 1021.69 1021.78 1023.83 1025.50 1025.55 1025.74 1026.65 1027.10 1028.45 1028.35 1028.04 1027.66 1028.96 1029.46 1029.52 1030.99 1030.95 1030.75 1030.42 1030.47 1030.50 1030.48 1030.21 1030.18 1030.27 1030.73 1031.26 1031.62 1032.81 1033.85 1034.53 1034.90 1035.17 1035.02 1034.71 1034.20 1033.64
1021.11 1020.62 1020.27 1020.61 1021.34 1022.01 1021.87 1021.59 1021.78 1022.73 1024.70 1026.03 1026.48 1027.09 1027.87 1028.81 1029.56 1029.69 1029.34 1029.16 1029.84 1030.30 1030.82 1031.35 1031.09 1031.45 1031.31 1030.72 1030.53 1030.73 1030.41 1030.40 1030.58 1031.10 1031.93 1032.43 1033.58 1034.90 1035.83 1036.48 1036.32 1035.78 1035.12 1034.46 1033.60
1021.00 1020.75 1020.62 1021.24 1022.13 1021.94 1021.82 1022.03 1022.89 1024.16 1026.62 1027.60 1028.08 1028.48 1029.22 1030.26 1030.83 1031.25 1031.90 1031.76 1032.25 1032.01 1032.40 1032.28 1031.90 1031.59 1031.70 1031.48 1031.15 1031.26 1031.29 1031.88 1032.16 1032.48 1032.65 1033.14 1034.40 1035.51 1036.43 1037.07 1037.20 1036.57 1035.60 1034.88 1034.07
1021.12 1020.96 1021.42 1022.03 1022.05 1021.85 1021.96 1022.68 1024.43 1026.81 1027.73 1028.61 1029.09 1029.76 1030.60 1031.42 1032.08 1032.36 1032.80 1033.37 1033.61 1033.93 1034.03 1033.64 1032.69 1032.49 1032.25 1032.36 1032.68 1032.61 1033.03 1033.96 1034.48 1034.42 1034.22 1034.11 1035.53 1036.22 1036.86 1037.39 1037.34 1036.89 1036.14 1035.06 1034.21
1021.27 1021.57 1021.96 1022.10 1021.96 1022.08 1022.52 1024.71 1027.74 1028.74 1029.44 1029.71 1029.94 1030.65 1031.92 1032.29 1032.77 1033.33 1033.80 1034.36 1034.46 1034.52 1034.78 1034.60 1034.03 1033.39 1032.90 1032.85 1033.10 1033.33 1033.87 1034.55 1035.18 1035.62 1035.64 1035.25 1036.23 1036.93 1037.17 1037.53 1037.22 1036.97 1036.18 1035.16 1034.18
1021.86 1022.19 1022.59 1022.21 1021.92 1022.22 1023.89 1027.86 1029.24 1029.73 1030.05 1030.24 1030.81 1031.68 1032.42 1033.03 1033.42 1033.58 1034.07 1034.47 1034.64 1034.79 1034.85 1035.25 1035.18 1034.05 1033.55 1033.37 1033.76 1034.20 1034.95 1035.40 1035.82 1036.31 1036.36 1036.21 1037.37 1037.73 1038.48 1038.53 1038.01 1037.17 1036.19 1035.07 1034.17
1022.22 1022.67 1022.72 1022.47 1022.16 1023.62 1026.98 1029.05 1029.82 1030.14 1030.47 1031.12 1031.51 1032.10 1032.79 1033.26 1033.64 1034.16 1034.51 1034.55 1034.48 1034.54 1034.69 1035.21 1035.67 1034.96 1034.18 1034.38 1034.52 1034.93 1035.43 1036.03 1036.65 1037.01 1037.42 1037.81 1037.49 1038.04 1038.92 1038.80 1038.27 1037.26 1036.23 1035.08 1034.02
1022.92 1023.50 1023.07 1022.63 1024.24 1027.26 1029.11 1030.00 1030.49 1030.86 1030.75 1031.26 1031.79 1032.46 1033.14 1033.69 1034.15 1034.15 1034.28 1034.40 1034.53 1034.71 1034.84 1035.11 1035.72 1035.74 1035.47 1035.33 1035.33 1035.66 1036.15 1036.61 1036.97 1037.39 1037.77 1038.41 1037.71 1037.96 1038.50 1038.37 1037.80 1036.90 1035.66 1034.55 1033.71
1024.48 1024.54 1023.36 1023.13 1026.50 1029.30 1030.21 1030.61 1031.01 1031.35 1031.48 1031.63 1032.43 1032.86 1033.16 1033.71 1034.25 1034.18 1034.23 1034.27 1034.43 1034.65 1034.99 1035.43 1036.15 1036.53 1036.07 1036.25 1036.09 1036.24 1036.31 1036.63 1037.07 1037.45 1037.86 1038.59 1037.69 1037.60 1038.08 1037.76 1037.13 1036.23 1035.17 1034.20 1033.28
1024.98 1025.90 1026.06 1026.78 1028.72 1029.43 1030.49 1031.14 1031.49 1031.69 1032.02 1032.24 1032.81 1033.21 1033.85 1034.15 1034.42 1034.58 1034.57 1034.33 1034.46 1034.61 1034.78 1035.41 1036.67 1037.32 1037.38 1036.82 1036.61 1036.65 1036.54 1036.76 1037.21 1037.58 1037.75 1037.96 1037.53 1037.31 1037.60 1037.17 1036.49 1035.69 1034.82 1033.90 1032.98
1025.99 1028.04 1028.60 1029.36 1029.95 1029.78 1030.20 1031.20 1031.90 1032.43 1032.59 1032.71 1033.07 1033.65 1034.18 1034.75 1034.87 1034.90 1035.07 1034.87 1034.76 1035.03 1035.49 1036.24 1036.98 1037.44 1037.36 1036.90 1036.79 1036.67 1036.68 1037.01 1037.24 1037.50 1037.96 1037.64 1037.72 1037.66 1037.75 1037.28 1036.49 1035.64 1034.74 1033.76 1032.80
1026.47 1027.84 1029.35 1030.17 1030.35 1030.45 1030.80 1031.53 1031.88 1032.65 1033.03 1033.31 1033.53 1033.83 1034.40 1034.81 1035.00 1035.23 1035.28 1035.56 1035.40 1035.74 1036.12 1036.81 1037.26 1037.59 1037.41 1036.97 1037.03 1037.01 1037.28 1037.44 1037.44 1037.60 1037.83 1037.78 1037.52 1037.93 1037.40 1036.84 1036.06 1035.22 1034.35 1033.56 1032.71
1027.12 1027.55 1027.93 1030.96 1031.10 1030.91 1031.26 1031.65 1032.22 1032.56 1033.37 1033.31 1033.75 1033.83 1034.26 1034.54 1034.95 1035.13 1035.32 1035.68 1035.76 1036.18 1036.71 1037.35 1038.00 1038.47 1037.98 1037.47 1037.54 1037.79 1037.95 1037.97 1037.94 1037.98 1038.12 1038.09 1038.23 1038.00 1037.20 1036.65 1035.89 1035.01 1034.28 1033.58 1032.73
Wind_Speed
17 16 16 15 15 15 14 13 13 12 10 9 8 7 6 7 5 4 15 11 10 13 7 3 4 3 3 4 3 3 4 0 1 2 2 5 7 5 3 14 13 19 23 21 23
17 17 17 16 15 15 14 14 13 12 10 9 7 6 6 7 3 18 13 16 14 10 5 5 2 2 3 2 3 4 3 6 3 1 3 1 2 6 6 18 14 21 24 26 26
18 17 17 16 16 15 14 13 12 10 10 8 6 5 5 4 6 6 22 19 14 8 1 1 1 2 4 2 2 2 4 3 2 4 4 3 15 12 7 15 14 19 22 24 25
18 18 17 17 16 14 13 12 11 8 8 8 6 4 3 2 4 6 24 20 13 7 4 4 5 4 4 3 3 2 4 3 8 7 4 1 6 18 22 8 14 14 17 21 26
19 19 18 17 16 14 13 12 9 7 6 6 5 3 2 9 5 9 22 13 5 5 6 4 6 3 3 2 2 3 3 7 10 7 15 13 17 13 23 15 15 16 21 24 22
18 18 17 17 16 15 14 10 5 4 5 6 6 1 6 10 7 13 10 5 6 5 6 6 3 2 4 3 4 2 8 8 10 13 11 11 14 5 20 16 18 20 21 22 24
19 19 18 17 17 17 14 6 1 2 3 5 5 4 14 6 3 10 12 2 4 1 3 3 2 6 1 3 5 1 2 6 15 15 5 2 12 15 15 14 18 18 19 20 24
20 18 18 18 17 18 12 5 3 2 3 4 3 5 7 2 4 23 16 6 9 6 4 7 8 8 6 4 4 5 4 1 7 14 7 7 4 12 14 14 18 19 18 18 22
20 20 20 19 18 16 10 6 4 3 5 5 7 7 4 8 10 12 8 7 5 5 11 10 9 6 10 5 3 9 2 4 3 9 9 9 5 12 14 16 17 17 17 17 17
20 18 19 19 17 16 8 3 7 5 7 3 4 7 7 5 7 10 7 7 6 4 8 13 9 6 8 9 3 4 3 3 5 7 10 5 7 11 14 16 15 15 16 17 17
20 18 18 17 12 12 5 4 6 10 13 8 4 6 3 7 7 16 10 8 8 10 6 7 14 8 5 4 1 1 2 1 3 1 5 5 8 10 12 16 19 19 20 20 18
19 18 18 17 8 10 5 7 2 5 8 6 7 6 5 2 8 23 15 9 10 8 3 8 8 3 5 7 3 2 2 2 9 2 5 9 8 6 11 12 12 14 16 18 20
18 17 17 14 2 7 6 4 3 2 7 5 5 6 4 7 6 15 10 4 6 14 14 9 2 2 2 8 8 1 2 3 7 5 7 8 4 4 3 9 11 13 12 12 14
18 16 16 12 8 1 4 6 2 1 6 10 8 7 9 2 6 7 6 2 6 3 6 8 4 5 4 6 5 3 5 9 10 6 2 3 3 2 4 7 14 14 13 14 16
18 15 11 13 5 4 3 4 2 3 4 6 5 2 6 9 5 15 6 8 6 8 2 1 3 8 5 6 5 3 13 10 10 4 2 2 2 1 3 8 15 12 12 12 12
15 13 6 6 4 1 4 2 2 7 4 3 3 6 6 8 6 7 8 8 3 6 7 2 1 3 4 9 1 11 6 1 2 2 1 2 2 2 1 4 7 9 13 15 15
11 5 6 2 1 4 2 3 6 6 3 5 4 5 5 7 5 7 8 11 7 6 7 5 3 1 4 6 4 12 6 4 4 4 3 1 2 4 4 3 3 10 14 13 14
7 4 5 3 3 1 3 5 5 2 1 2 3 2 5 6 4 7 3 5 7 5 3 5 3 5 7 3 3 4 3 2 3 3 5 4 5 5 6 3 5 6 11 16 14
2 3 3 5 3 2 5 8 3 2 2 4 1 4 4 4 3 4 5 2 3 4 3 5 3 4 3 2 3 5 4 1 2 3 3 3 2 4 1 6 11 11 15 16 16
2 2 2 8 2 5 9 5 2 2 2 0 2 3 4 5 4 5 3 2 2 1 1 1 5 2 4 2 3 3 2 1 1 3 5 4 5 4 3 7 10 12 15 15 16
4 4 3 6 3 9 6 3 4 2 1 3 2 3 2 2 1 2 2 1 1 4 1 3 3 5 1 3 0 2 2 2 2 2 2 5 6 6 6 5 9 11 13 15 15
2 3 4 2 8 4 4 3 3 1 5 3 4 3 2 2 1 1 2 2 1 2 1 2 4 4 4 3 3 3 4 3 2 5 3 2 7 4 5 5 6 13 17 16 17
3 2 4 3 5 3 2 4 3 1 3 3 3 3 1 2 1 3 2 2 3 2 1 2 1 4 5 1 4 2 3 3 2 2 4 3 7 3 4 7 11 17 17 17 18
4 4 6 7 2 7 5 3 4 2 3 4 3 3 2 1 1 2 1 1 2 1 6 2 2 5 6 9 3 6 4 3 2 3 3 6 8 13 11 15 18 19 18 19 17
4 1 1 2 4 5 4 4 4 2 2 2 3 3 2 1 1 1 1 3 0 4 3 3 2 3 7 8 4 4 2 5 5 4 5 5 13 12 10 14 16 16 18 18 17
5 5 4 3 0 4 3 2 4 3 1 1 3 3 2 2 4 4 2 2 3 2 2 2 3 3 5 3 5 3 3 2 6 3 8 11 16 8 14 15 16 18 19 18 18
0 2 5 2 1 2 2 5 3 7 2 3 4 4 1 3 2 3 3 2 1 3 1 1 1 2 5 3 2 2 3 1 3 6 7 8 4 11 17 18 17 20 18 17 20
Wind_Direction
4 2 0 358 354 351 350 349 347 345 345 345 355 355 4 353 324 39 40 359 356 352 354 313 48 22 50 77 69 135 66 90 277 134 60 13 19 321 334 18 47 8 21 2 8
3 0 359 356 353 350 349 349 349 353 356 357 354 1 10 353 68 56 1 350 348 360 23 38 30 32 61 76 33 84 118 203 190 177 52 33 356 322 46 38 6 7 13 14 17
2 360 357 355 354 353 351 351 353 1 6 15 22 23 13 351 65 337 344 343 345 356 311 317 340 53 73 60 14 159 178 177 77 76 36 11 76 34 15 42 22 7 5 14 21
1 359 357 354 353 350 348 351 354 8 15 31 40 31 7 32 79 294 338 335 348 360 34 21 25 47 60 65 351 61 52 25 18 8 20 332 64 77 47 34 14 25 23 25 27
359 357 354 351 348 345 343 345 353 5 12 12 13 360 47 49 32 308 329 334 9 26 44 34 43 41 67 40 12 37 54 54 10 22 28 70 43 98 37 21 22 29 34 31 27
357 355 351 348 344 343 341 337 346 5 10 10 35 136 71 78 298 321 321 3 21 31 26 42 72 77 87 67 59 328 74 58 12 8 59 64 35 45 7 14 30 31 34 31 28
357 353 351 348 346 347 347 358 53 38 13 11 9 104 73 148 26 328 4 13 345 55 78 42 40 70 5 75 346 37 126 37 13 343 28 30 33 26 1 23 29 31 29 32 25
355 351 349 348 347 352 354 47 86 50 348 345 32 74 86 23 283 20 348 342 359 28 62 20 71 83 43 304 39 49 67 55 6 5 328 341 105 29 19 31 34 29 23 31 24
353 352 349 350 343 354 354 34 40 12 345 356 42 86 48 345 9 350 16 338 305 18 36 50 56 57 6 17 63 15 56 18 339 29 358 27 91 31 28 36 34 26 22 19 19
354 353 349 347 344 347 347 2 7 44 354 25 66 51 14 5 337 343 339 347 21 345 27 32 46 61 25 19 21 335 345 347 316 2 358 55 76 37 30 36 28 21 17 13 8
353 352 351 349 351 1 21 19 24 7 28 82 346 95 31 317 36 0 350 347 14 54 37 29 57 55 29 20 4 243 233 267 271 290 9 99 77 55 40 34 23 11 6 6 6
354 353 355 352 10 26 66 72 74 167 82 42 78 84 29 51 25 359 354 64 39 36 336 52 72 5 76 20 37 74 112 308 294 286 322 128 96 90 61 39 32 16 5 357 353
355 354 351 349 19 40 77 75 311 332 96 31 73 49 5 41 55 342 9 27 79 57 57 87 354 14 73 53 22 123 107 275 268 311 285 131 156 76 49 34 24 20 8 1 352
353 355 352 341 53 358 48 318 320 134 90 332 356 4 1 73 62 6 3 65 50 93 95 77 345 50 48 50 26 301 347 317 297 326 264 217 283 211 347 9 13 359 0 353 346
349 349 13 38 141 55 291 308 294 51 23 343 14 24 8 73 291 352 339 22 70 26 141 233 47 31 20 354 336 284 305 284 283 216 182 16 268 40 2 346 352 339 340 342 340
350 344 22 27 47 28 303 284 64 46 268 351 37 7 33 26 27 335 14 30 53 62 59 63 5 57 308 312 307 327 314 355 111 123 199 138 357 286 321 271 318 329 339 336 334
349 28 59 46 331 321 329 47 36 99 14 5 353 14 84 15 37 17 45 35 29 16 19 348 20 61 13 337 344 4 7 357 1 6 263 353 301 237 227 278 261 320 330 329 327
356 86 54 62 313 9 65 54 70 95 14 3 5 54 60 11 36 15 42 40 23 28 43 28 338 22 351 59 299 334 40 104 255 299 287 332 234 281 195 238 270 322 320 328 330
25 15 49 340 339 57 72 53 42 32 337 342 343 58 20 12 47 63 47 65 25 360 51 11 274 330 353 4 21 341 32 138 227 224 266 287 272 319 216 337 352 328 332 331 331
82 59 4 325 36 68 71 110 115 52 352 338 72 37 24 345 38 53 31 330 355 64 170 154 293 309 331 55 43 67 345 58 8 305 285 301 281 252 312 311 315 316 325 326 325
49 51 297 343 53 48 85 110 133 83 152 35 135 100 128 59 91 37 7 316 338 329 81 137 133 293 359 32 195 359 11 9 245 232 268 301 271 209 204 254 290 298 319 326 325
74 26 321 35 49 45 81 96 112 72 38 70 91 94 105 141 110 141 171 198 224 254 0 214 166 261 248 328 98 126 177 146 167 291 253 235 274 189 210 275 297 326 326 326 325
68 291 329 65 90 77 104 81 74 79 45 83 96 43 132 145 196 169 187 123 37 39 232 199 325 341 355 61 3 189 187 192 242 198 232 250 268 193 260 326 333 330 326 327 322
87 5 354 41 53 118 136 130 123 41 74 70 104 74 72 140 35 180 214 201 341 315 35 155 173 165 194 237 233 263 197 186 212 245 271 243 288 311 344 338 334 326 323 323 320
25 103 162 19 14 99 99 124 123 125 60 51 100 91 125 198 294 220 227 323 126 356 42 90 232 191 258 267 263 258 239 190 206 229 251 275 292 317 327 324 321 314 317 320 320
123 133 40 91 126 89 17 115 142 140 123 76 118 128 145 200 196 222 160 200 235 20 49 357 270 357 284 287 233 249 149 211 234 279 264 284 296 1 326 318 323 320 322 321 320
313 52 102 342 61 101 162 155 140 128 55 92 141 119 186 218 206 224 207 196 181 126 320 40 38 22 268 305 339 7 203 257 273 281 286 284 320 330 320 322 320 316 315 317 316